Flag for Lithuania Weather past 2 weeks in Vilnius, Lithuania

Now
28 °F

Ice fog.


Feels Like: 22 °F
Forecast: 29 / 34 °F
Wind: 6 mph from South

Location: Vilnius Airport

Current Time: Jan 27, 2015 at 3:29:46 AM

Latest Report: Jan 27, 2015 at 2:50 AM


Visibility: 0 mi

Pressure: 29.98 "Hg

Humidity: 100%

Dew point: 28 °F

Location of VilniusLocation

Historic Weather in Vilnius — Graph

°F

Vilnius temperature yesterday

Maximum temperature yesterday: 30 °F (at 12:20 AM)
Minimum temperature yesterday: 28 °F (at 10:20 AM)
Average temperature yesterday: 29 °F

Past Weeks' High & Low Weather Summary

 TemperatureHumidityPressure
High41 °F (Jan 13, 8:20 AM)100% (Jan 12, 2:20 AM)30.21 "Hg (Jan 12, 2:20 AM)
Low25 °F (Jan 20, 12:20 AM)74% (Jan 20, 9:50 AM)29.21 "Hg (Jan 12, 2:20 AM)
Average32 °F93%29.95 "Hg
* Reported Jan 12 2:20 AM — Jan 27 2:20 AM, Vilnius, Weather by CustomWeather, © 2014

Note: Actual official high and low records may vary slightly from our data, if they occured in-between our weather recording intervals... More about our weather records

Advertising

Vilnius weather history for previous 24 hours

 ConditionsComfort  
Time TempWeatherWind HumidityBarometerVisibility
2:20 AM
Jan 27
28 °FIce fog.6 mph100%29.98 "Hg0 mi
1:50 AM28 °FIce fog.7 mph100%29.98 "Hg1 mi
1:20 AM28 °FIce fog.6 mph100%29.98 "Hg1 mi
12:50 AM28 °FIce fog.6 mph100%30.01 "Hg1 mi
12:20 AM28 °FIce fog.6 mph100%30.01 "Hg1 mi
11:50 PM
Jan 26
28 °FIce fog.6 mph100%30.01 "Hg1 mi
11:20 PM28 °FIce fog.5 mph100%30.04 "Hg1 mi
11:00 PM28 °FIce fog.5 mph100%30.04 "Hg1 mi
10:20 PM28 °FIce fog.5 mph100%30.04 "Hg1 mi
9:50 PM28 °FIce fog.5 mph100%30.04 "Hg1 mi
9:20 PM28 °FIce fog.3 mph100%30.04 "Hg1 mi
8:50 PM28 °FIce fog.3 mph100%30.07 "Hg1 mi
8:20 PM28 °FIce fog.5 mph100%30.07 "Hg1 mi
7:50 PM28 °FIce fog.3 mph100%30.07 "Hg1 mi
7:20 PM28 °FIce fog.5 mph100%30.07 "Hg1 mi
6:50 PM28 °FIce fog.5 mph100%30.07 "Hg1 mi
6:20 PM28 °FIce fog.3 mph100%30.07 "Hg1 mi
5:50 PM28 °FIce fog.3 mph100%30.07 "Hg2 mi
5:20 PM28 °FIce fog.2 mph100%30.07 "Hg2 mi
4:50 PM28 °FIce fog.2 mph100%30.09 "Hg2 mi
4:20 PM28 °FIce fog.3 mph100%30.09 "Hg2 mi
3:50 PM28 °FIce fog.5 mph100%30.09 "Hg2 mi
3:20 PM28 °FLight freezing rain. Ice fog.5 mph100%30.09 "Hg2 mi
2:50 PM28 °FLight snow. Ice fog.5 mph100%30.09 "Hg1 mi
2:20 PM28 °FLight freezing rain. Ice fog.6 mph100%30.09 "Hg1 mi
1:50 PM28 °FLight freezing rain. Ice fog.6 mph100%30.09 "Hg1 mi
1:20 PM28 °FLight freezing rain. Ice fog.5 mph100%30.09 "Hg2 mi
12:50 PM30 °FLight freezing rain. Ice fog.3 mph100%30.09 "Hg2 mi
12:20 PM28 °FLight freezing rain. Ice fog.3 mph100%30.09 "Hg1 mi
11:50 AM28 °FLight snow. Ice fog.2 mph100%30.09 "Hg1 mi
11:20 AM28 °FLight snow. Ice fog.5 mph100%30.12 "Hg1 mi
10:50 AM28 °FLight snow. Ice fog.5 mph100%30.12 "Hg1 mi
10:20 AM28 °FLight freezing rain. Ice fog.6 mph100%30.12 "Hg1 mi
9:50 AM30 °FLight freezing rain. Ice fog.5 mph100%30.12 "Hg1 mi
9:20 AM30 °FLight freezing rain. Ice fog.5 mph100%30.12 "Hg1 mi
8:50 AM30 °FLight freezing rain. Ice fog.6 mph100%30.12 "Hg0 mi
8:20 AM30 °FLight freezing rain. Ice fog.5 mph100%30.09 "Hg0 mi
7:50 AM30 °FLight freezing rain. Ice fog.3 mph100%30.09 "Hg1 mi
7:20 AM30 °FLight freezing rain. Ice fog.5 mph100%30.09 "Hg1 mi
6:50 AM30 °FLight freezing rain. Ice fog.5 mph100%30.09 "Hg1 mi
6:20 AM30 °FLight freezing rain. Ice fog.6 mph100%30.09 "Hg1 mi
6:02 AM30 °FLight freezing rain. Ice fog.6 mph100%30.09 "Hg1 mi
4:50 AM30 °FLight freezing rain. Ice fog.5 mph100%30.09 "Hg2 mi
4:20 AM30 °FSnow. Ice fog.5 mph100%30.09 "Hg1 mi
3:50 AM30 °FSnow. Ice fog.5 mph100%30.09 "Hg1 mi
3:20 AM30 °FLight snow. Ice fog.5 mph100%30.09 "Hg1 mi
Weather by CustomWeather, © 2014

See weather overviewHow to use our weather pages